Weather History for Shelton, WA

Change the Weather History Date:

Tuesday, April 23, 2013

  Actual Average Record
Temperature  
Mean Temperature 46 °F -  
Max Temperature 64 °F 60 °F 75 °F (2012)
Min Temperature 28 °F 41 °F 28 °F (2006)
Degree Days  
Heating Degree Days 20    
Moisture  
Dew Point 29 °F    
Average Humidity 57    
Maximum Humidity 92    
Minimum Humidity 22    
Precipitation  
Precipitation 0.00 in - - ()
Sea Level Pressure  
Sea Level Pressure 30.31 in    
Wind  
Wind Speed 2 mph (East)    
Max Wind Speed 10 mph    
Max Gust Speed -    
Visibility 10 miles    
Events      
Averages and records for this station are not official NWS values.
T = Trace of Precipitation, MM = Missing Value Source: NWS Daily Summary

Daily Weather History Graph

Daily Weather History Graph

Search for Another Location

Airport:

Trip Planner

Search our weather history database for the weather conditions in past years. The results will help you decide how hot, cold, wet, or windy it might be!

Date:

Astronomy

Apr. 23, 2013 Rise Set
Actual Time 6:09 AM PDT 8:13 PM PDT
Civil Twilight 5:36 AM PDT 8:46 PM PDT
Nautical Twilight 4:55 AM PDT 9:27 PM PDT
Astronomical Twilight 4:10 AM PDT 10:13 PM PDT
Moon 6:08 PM PDT (4/23) 4:49 AM PDT (4/23)
Length of Visible Light 15h 10m
Length of Day
14h 04m
Waxing Gibbous, 94% of the Moon is Illuminated
Apr 23
Waxing Gibbous
Apr 25
Full
May 2
Last Quarter
May 9
New
May 17
First Quarter

Hourly Weather History & Observations

Time (PDT) Temp. Dew Point Humidity Pressure Visibility Wind Dir Wind Speed Gust Speed Precip Events Conditions
12:53 AM 32.0 °F 28.9 °F 88% 30.42 in 10.0 mi Calm Calm - N/A   Clear
1:53 AM 30.0 °F 28.0 °F 92% 30.41 in 10.0 mi Calm Calm - N/A   Clear
2:53 AM 30.0 °F 27.0 °F 88% 30.39 in 10.0 mi Calm Calm - N/A   Clear
3:53 AM 28.9 °F 27.0 °F 92% 30.39 in 10.0 mi Calm Calm - N/A   Clear
4:53 AM 28.0 °F 26.1 °F 92% 30.39 in 10.0 mi Calm Calm - N/A   Clear
5:53 AM 28.0 °F 26.1 °F 92% 30.37 in 10.0 mi Calm Calm - N/A   Clear
6:53 AM 28.9 °F 27.0 °F 92% 30.36 in 10.0 mi Calm Calm - N/A   Clear
7:53 AM 37.0 °F 33.1 °F 86% 30.36 in 10.0 mi Calm Calm - N/A   Clear
8:53 AM 44.1 °F 34.0 °F 68% 30.33 in 10.0 mi Calm Calm - N/A   Clear
9:53 AM 51.1 °F 30.0 °F 44% 30.32 in 10.0 mi Calm Calm - N/A   Clear
10:53 AM 55.9 °F 26.1 °F 32% 30.31 in 10.0 mi South 4.6 mph - N/A   Clear
11:53 AM 59.0 °F 27.0 °F 29% 30.31 in 10.0 mi East 6.9 mph - N/A   Mostly Cloudy
12:53 PM 61.0 °F 28.0 °F 29% 30.29 in 10.0 mi Variable 5.8 mph - N/A   Partly Cloudy
1:53 PM 61.0 °F 27.0 °F 27% 30.28 in 10.0 mi East 9.2 mph - N/A   Clear
2:53 PM 61.0 °F 21.9 °F 22% 30.27 in 10.0 mi Variable 3.5 mph - N/A   Clear
3:53 PM 62.1 °F 26.1 °F 25% 30.25 in 10.0 mi East 4.6 mph - N/A   Clear
4:53 PM 63.0 °F 30.0 °F 29% 30.23 in 10.0 mi East 10.4 mph - N/A   Clear
5:53 PM 62.1 °F 28.9 °F 29% 30.22 in 10.0 mi SSE 8.1 mph - N/A   Clear
6:53 PM 61.0 °F 30.0 °F 31% 30.23 in 10.0 mi East 8.1 mph - N/A   Clear
7:53 PM 57.9 °F 28.9 °F 33% 30.24 in 10.0 mi NNE 5.8 mph - N/A   Clear
8:53 PM 53.1 °F 30.0 °F 41% 30.26 in 10.0 mi NE 3.5 mph - N/A   Clear
9:53 PM 46.0 °F 34.0 °F 63% 30.27 in 10.0 mi Calm Calm - N/A   Clear
10:53 PM 42.1 °F 35.1 °F 76% 30.28 in 10.0 mi Calm Calm - N/A   Clear
11:53 PM 41.0 °F 35.1 °F 79% 30.29 in 10.0 mi Calm Calm - N/A   Clear